Location: Ku?niki
(51.4449°N, 17.8974°E)
Time: 09:50:53
(UTC+00:00)

SPOT 5 - Pass Details

Date: 18 September 2020
Orbit: 623 x 815 km, 98.3° (Epoch: 25 October)

Event Time Altitude Azimuth Distance (km) Brightness Sun altitude
Exits shadow 20:40:10 55° 312° (NW) 945 3.6 -31.1°
Drops below altitude 10° 20:44:30 10° 341° (NNW) 2,396 6.4 -31.5°
Sets 20:46:54 0° 344° (NNW) 3,343 7.3 -31.8°
